When you browse on this site, cookies collect data to enhance your experience and personalize the content and advertising you see.
Visit our Privacy Policy to learn more. By continuing to use the site, you agree to this use of cookies and data.
  • In Österreich
  • Länderverzeichnis
  • Für 7 Tage
  • Wassertemperatur
  • Satellitenkarten
  • Wetterkarte
  • News
  • Widgets
  • user-avatar
    Anmelden

    Stündliche Wetter Igls

    Heute, 23 Januar, Mittwoch

    Zeit Temperatur Niederschläge Wind Luftdruck Luftfeuchtigkeit
    00:00 -7°C° 0 mm 1 m/S 671 mmHg 68%
    01:00 -7°C° 0 mm 2 m/S 670 mmHg 66%
    02:00 -6°C° 0 mm 1 m/S 670 mmHg 67%
    03:00 -7°C° 0 mm 1 m/S 669 mmHg 67%
    04:00 -7°C° 0 mm 1 m/S 669 mmHg 68%
    05:00 -7°C° 0 mm 1 m/S 668 mmHg 69%
    06:00 -7°C° 0 mm 1 m/S 668 mmHg 71%
    07:00 -7°C° 0 mm 1 m/S 668 mmHg 72%
    08:00 -4°C° 0 mm 1 m/S 668 mmHg 74%
    09:00 -3°C° 0 mm 1 m/S 668 mmHg 76%
    10:00 -2°C° 0 mm 1 m/S 668 mmHg 78%
    11:00 -1°C° 0 mm 1 m/S 668 mmHg 77%
    12:00 0°C° 0 mm 1 m/S 667 mmHg 75%
    13:00 +1°C° 0 mm 1 m/S 667 mmHg 73%
    14:00 0°C° 0 mm 1 m/S 667 mmHg 78%
    15:00 0°C° 0 mm 1 m/S 667 mmHg 83%
    16:00 -1°C° 0 mm 1 m/S 667 mmHg 88%
    17:00 -3°C° 0 mm 1 m/S 667 mmHg 89%
    18:00 -4°C° 0 mm 1 m/S 667 mmHg 90%
    19:00 -7°C° 0 mm 1 m/S 667 mmHg 91%
    20:00 -7°C° 0 mm 1 m/S 667 mmHg 89%
    21:00 -8°C° 0 mm 1 m/S 668 mmHg 87%
    22:00 -8°C° 0 mm 1 m/S 668 mmHg 86%
    23:00 -8°C° 0 mm 1 m/S 668 mmHg 86%

    Morgen, 24 Januar, Donnerstag

    Zeit Temperatur Niederschläge Wind Luftdruck Luftfeuchtigkeit
    00:00 -9°C° 0 mm 1 m/S 669 mmHg 86%
    01:00 -9°C° 0 mm 1 m/S 669 mmHg 86%
    02:00 -9°C° 0 mm 1 m/S 669 mmHg 86%
    03:00 -9°C° 0 mm 1 m/S 669 mmHg 87%
    04:00 -9°C° 0 mm 1 m/S 670 mmHg 88%
    05:00 -10°C° 0 mm 1 m/S 670 mmHg 88%
    06:00 -10°C° 0 mm 1 m/S 670 mmHg 88%
    07:00 -10°C° 0 mm 1 m/S 671 mmHg 88%
    08:00 -9°C° 0 mm 1 m/S 671 mmHg 88%
    09:00 -7°C° 0 mm 1 m/S 672 mmHg 87%
    10:00 -4°C° 0 mm 1 m/S 673 mmHg 87%
    11:00 -4°C° 0 mm 1 m/S 673 mmHg 86%
    12:00 -3°C° 0 mm 1 m/S 673 mmHg 85%
    13:00 -2°C° 0 mm 1 m/S 673 mmHg 84%
    14:00 -4°C° 0 mm 2 m/S 673 mmHg 86%
    15:00 -5°C° 0 mm 2 m/S 673 mmHg 89%
    16:00 -5°C° 0 mm 2 m/S 673 mmHg 91%
    17:00 -6°C° 0 mm 1 m/S 673 mmHg 92%
    18:00 -7°C° 0 mm 1 m/S 674 mmHg 94%
    19:00 -8°C° 0 mm 1 m/S 674 mmHg 95%
    20:00 -9°C° 0 mm 1 m/S 675 mmHg 94%
    21:00 -9°C° 0 mm 1 m/S 675 mmHg 93%
    22:00 -10°C° 0 mm 1 m/S 675 mmHg 92%
    23:00 -10°C° 0 mm 1 m/S 675 mmHg 92%

    übermorgen, 25 Januar, Freitag

    Zeit Temperatur Niederschläge Wind Luftdruck Luftfeuchtigkeit
    00:00 -11°C° 0 mm 1 m/S 675 mmHg 91%
    01:00 -11°C° 0 mm 1 m/S 675 mmHg 90%
    02:00 -11°C° 0 mm 1 m/S 675 mmHg 91%
    03:00 -11°C° 0 mm 1 m/S 675 mmHg 91%
    04:00 -11°C° 0 mm 1 m/S 675 mmHg 91%
    05:00 -11°C° 0.1 mm 1 m/S 675 mmHg 91%
    06:00 -11°C° 0.1 mm 1 m/S 676 mmHg 91%
    07:00 -10°C° 0.1 mm 1 m/S 676 mmHg 92%
    08:00 -9°C° 0.1 mm 1 m/S 676 mmHg 91%
    09:00 -8°C° 0.1 mm 1 m/S 677 mmHg 90%
    10:00 -7°C° 0.1 mm 1 m/S 677 mmHg 89%
    11:00 -7°C° 0 mm 2 m/S 677 mmHg 88%
    12:00 -7°C° 0 mm 2 m/S 677 mmHg 86%
    13:00 -6°C° 0 mm 2 m/S 677 mmHg 85%
    14:00 -6°C° 0 mm 2 m/S 677 mmHg 87%
    15:00 -7°C° 0 mm 2 m/S 677 mmHg 88%
    16:00 -7°C° 0 mm 2 m/S 678 mmHg 90%
    17:00 -9°C° 0 mm 2 m/S 678 mmHg 91%
    18:00 -9°C° 0 mm 1 m/S 678 mmHg 92%
    19:00 -11°C° 0 mm 1 m/S 679 mmHg 94%
    20:00 -11°C° 0 mm 1 m/S 679 mmHg 92%
    21:00 -12°C° 0 mm 1 m/S 680 mmHg 91%
    22:00 -15°C° 0 mm 2 m/S 680 mmHg 90%
    23:00 -15°C° 0 mm 2 m/S 680 mmHg 88%

    26 Januar, Samstag

    Zeit Temperatur Niederschläge Wind Luftdruck Luftfeuchtigkeit
    00:00 -15°C° 0 mm 2 m/S 680 mmHg 86%
    01:00 -15°C° 0 mm 2 m/S 680 mmHg 85%
    02:00 -15°C° 0 mm 2 m/S 680 mmHg 81%
    03:00 -15°C° 0 mm 2 m/S 680 mmHg 78%
    04:00 -14°C° 0 mm 2 m/S 680 mmHg 75%
    05:00 -14°C° 0 mm 2 m/S 681 mmHg 72%
    06:00 -14°C° 0 mm 2 m/S 681 mmHg 69%
    07:00 -13°C° 0 mm 2 m/S 681 mmHg 67%
    08:00 -10°C° 0 mm 2 m/S 681 mmHg 68%
    09:00 -8°C° 0 mm 2 m/S 682 mmHg 69%
    10:00 -6°C° 0 mm 2 m/S 682 mmHg 70%
    11:00 -1°C° 0 mm 1 m/S 681 mmHg 67%
    12:00 +1°C° 0 mm 1 m/S 681 mmHg 64%
    13:00 +3°C° 0 mm 1 m/S 680 mmHg 60%
    14:00 +2°C° 0 mm 1 m/S 679 mmHg 66%
    15:00 +2°C° 0 mm 1 m/S 679 mmHg 72%
    16:00 +2°C° 0 mm 1 m/S 678 mmHg 78%
    17:00 0°C° 0 mm 1 m/S 678 mmHg 76%
    18:00 -1°C° 0 mm 1 m/S 677 mmHg 74%
    19:00 -4°C° 0 mm 2 m/S 677 mmHg 73%
    20:00 -4°C° 0 mm 2 m/S 677 mmHg 75%
    21:00 -1°C° 0 mm 1 m/S 676 mmHg 77%
    22:00 0°C° 0 mm 1 m/S 676 mmHg 80%
    23:00 -2°C° 0 mm 2 m/S 675 mmHg 80%

    27 Januar, Sonntag

    Zeit Temperatur Niederschläge Wind Luftdruck Luftfeuchtigkeit
    00:00 -2°C° 0 mm 2 m/S 675 mmHg 80%
    01:00 -2°C° 0 mm 2 m/S 674 mmHg 80%
    02:00 -2°C° 0 mm 2 m/S 673 mmHg 80%
    03:00 -2°C° 0 mm 2 m/S 672 mmHg 81%
    04:00 -1°C° 0 mm 2 m/S 671 mmHg 82%
    05:00 -1°C° 0.1 mm 2 m/S 671 mmHg 83%
    06:00 -1°C° 0.1 mm 2 m/S 671 mmHg 84%
    07:00 +1°C° 0.1 mm 1 m/S 671 mmHg 86%
    08:00 +1°C° 0.8 mm 1 m/S 671 mmHg 89%
    09:00 +1°C° 0.8 mm 1 m/S 671 mmHg 92%
    10:00 +1°C° 0.8 mm 1 m/S 671 mmHg 95%
    11:00 -1°C° 1.2 mm 2 m/S 671 mmHg 95%
    12:00 -2°C° 1.2 mm 2 m/S 671 mmHg 95%
    13:00 -2°C° 1.2 mm 3 m/S 671 mmHg 95%
    14:00 -4°C° 0.5 mm 3 m/S 671 mmHg 94%
    15:00 -3°C° 0.5 mm 2 m/S 671 mmHg 93%
    16:00 -4°C° 0.5 mm 2 m/S 671 mmHg 92%
    17:00 -5°C° 0.3 mm 2 m/S 672 mmHg 92%
    18:00 -6°C° 0.3 mm 2 m/S 672 mmHg 93%
    19:00 -7°C° 0.3 mm 2 m/S 673 mmHg 93%
    20:00 -8°C° 0.1 mm 2 m/S 673 mmHg 92%
    21:00 -8°C° 0.1 mm 1 m/S 673 mmHg 91%
    22:00 -8°C° 0.1 mm 1 m/S 673 mmHg 90%
    23:00 -9°C° 0 mm 1 m/S 673 mmHg 88%

    28 Januar, Montag

    Zeit Temperatur Niederschläge Wind Luftdruck Luftfeuchtigkeit
    00:00 -9°C° 0 mm 1 m/S 673 mmHg 87%
    01:00 -10°C° 0 mm 1 m/S 672 mmHg 86%
    02:00 -10°C° 0 mm 1 m/S 672 mmHg 86%
    03:00 -10°C° 0 mm 1 m/S 672 mmHg 86%
    04:00 -10°C° 0 mm 1 m/S 672 mmHg 86%
    05:00 -11°C° 0 mm 1 m/S 672 mmHg 85%
    06:00 -11°C° 0 mm 1 m/S 672 mmHg 85%
    07:00 -12°C° 0 mm 1 m/S 672 mmHg 85%
    08:00 -10°C° 0 mm 1 m/S 672 mmHg 85%
    09:00 -9°C° 0 mm 1 m/S 673 mmHg 85%
    10:00 -7°C° 0 mm 1 m/S 673 mmHg 84%
    11:00 -6°C° 0 mm 1 m/S 673 mmHg 83%
    12:00 -6°C° 0 mm 2 m/S 673 mmHg 81%
    13:00 -5°C° 0 mm 2 m/S 673 mmHg 79%
    14:00 -6°C° 0 mm 2 m/S 673 mmHg 83%
    15:00 -6°C° 0 mm 2 m/S 673 mmHg 86%
    16:00 -6°C° 0 mm 2 m/S 673 mmHg 90%
    17:00 -7°C° 0.1 mm 2 m/S 674 mmHg 91%
    18:00 -7°C° 0.1 mm 1 m/S 674 mmHg 92%
    19:00 -9°C° 0.1 mm 1 m/S 674 mmHg 94%
    20:00 -9°C° 0.1 mm 1 m/S 674 mmHg 93%
    21:00 -9°C° 0.1 mm 1 m/S 675 mmHg 92%
    22:00 -9°C° 0.1 mm 1 m/S 675 mmHg 92%
    23:00 -9°C° 0.1 mm 1 m/S 675 mmHg 92%
    Mehr zeigen